RH
5 5 6 6 6 7 6 6 5 4 3 3 2 2 2 2 3 4 4 5 6 9 14 13 17 23 24 25 25 29 44 48 26 16 9 6 7 11 9 8 9 9 7 11 16 18 17 18 17
9 7 6 6 6 6 6 7 7 7 7 4 3 3 3 3 2 2 2 3 4 5 7 10 10 14 18 22 23 25 34 43 44 25 13 7 7 10 8 10 10 9 6 14 17 18 17 17 17
2 3 6 6 9 10 10 9 8 7 7 7 7 6 3 3 2 2 3 2 2 3 4 6 8 9 12 14 18 20 24 34 43 40 22 14 8 9 8 10 10 9 10 17 18 18 19 17 16
2 2 3 2 2 2 2 3 3 6 8 11 9 8 7 7 4 3 3 2 2 3 3 3 5 7 8 10 12 15 17 29 31 48 34 16 12 8 8 10 11 10 16 18 19 20 19 18 16
3 2 2 2 3 3 4 4 4 3 3 2 5 9 12 9 8 7 4 3 3 3 4 4 3 9 5 6 8 11 13 16 29 30 52 30 15 13 10 10 10 11 17 18 20 19 20 18 16
3 3 3 2 2 2 3 4 4 4 4 4 4 3 4 5 7 10 8 7 4 4 4 6 5 3 4 4 4 8 9 10 15 26 32 52 28 20 12 10 10 10 13 20 21 22 21 19 18
8 7 5 4 4 3 4 4 4 4 4 5 5 5 5 5 5 4 7 12 8 15 30 11 9 7 4 3 3 4 6 6 7 14 25 34 54 34 17 20 14 10 9 16 21 23 23 21 18
10 10 10 9 8 8 7 8 6 4 4 5 5 5 5 6 6 6 6 5 4 12 46 38 25 8 5 4 4 3 3 5 6 5 11 27 35 57 35 16 18 14 10 9 16 21 23 23 21
15 14 12 11 12 11 11 11 11 9 8 6 6 6 5 6 6 6 6 6 7 4 5 24 26 14 7 9 4 4 4 4 5 18 14 12 28 35 58 39 24 13 10 9 9 15 20 23 23
22 19 17 14 15 15 13 14 12 12 12 11 10 7 7 6 5 6 7 9 9 8 8 6 5 8 13 11 7 4 4 4 4 5 19 30 22 28 33 51 46 27 13 9 9 8 11 16 21
26 26 25 21 20 20 19 16 15 14 14 14 12 12 13 12 12 12 12 13 11 9 8 8 7 7 7 23 23 12 7 5 4 5 5 9 22 30 30 33 44 59 25 15 9 8 8 9 14
18 28 30 29 29 27 27 25 20 19 17 15 16 16 16 17 17 16 15 15 14 12 11 10 9 7 8 8 8 34 25 11 10 5 6 7 10 17 32 41 36 43 63 28 17 10 8 8 8
22 22 23 25 29 32 28 26 27 23 20 17 17 18 20 20 20 20 18 18 16 13 12 12 11 10 8 8 8 7 8 22 16 11 13 14 8 7 14 27 44 46 45 64 46 20 11 8 8
20 22 21 22 29 29 29 25 25 21 23 21 19 18 18 22 24 23 22 20 18 14 14 14 13 13 13 11 8 8 6 6 20 24 16 15 22 18 8 17 28 45 50 51 63 60 25 15 8
21 19 21 29 31 28 31 19 27 28 27 27 28 29 25 21 23 25 24 22 20 17 14 15 16 14 14 13 11 9 7 5 6 14 17 16 21 33 40 25 21 38 53 54 56 53 67 36 23
24 22 19 24 32 34 35 15 29 33 33 34 34 36 35 27 21 24 25 24 20 19 16 15 16 16 14 13 12 10 7 5 4 7 17 23 16 20 38 59 39 34 50 61 55 57 53 64 64
29 26 25 25 29 31 32 18 26 31 33 36 39 40 40 39 34 30 28 27 28 26 24 20 19 16 13 12 11 10 9 6 4 4 10 20 27 26 30 44 65 51 44 65 72 63 62 54 54
29 26 22 20 21 23 27 16 19 24 28 31 33 34 35 35 33 32 33 33 32 29 25 22 18 13 11 10 10 9 8 7 5 4 8 22 23 29 33 42 63 75 72 68 80 76 67 60 58
25 20 16 14 15 13 15 13 14 22 26 27 28 28 25 22 24 26 25 24 22 20 17 15 13 11 10 9 8 8 8 9 8 7 6 32 30 23 34 27 59 61 82 89 88 85 83 74 65
16 11 8 7 6 5 5 4 5 8 15 20 22 24 25 26 26 24 23 23 21 18 15 13 11 10 9 8 7 7 10 11 8 12 15 28 37 30 31 28 43 54 66 86 96 95 88 76 77
5 4 4 4 3 3 5 4 4 6 8 18 78 70 66 46 23 23 19 17 16 12 10 10 9 8 7 7 6 7 9 12 8 12 23 25 35 36 35 35 24 29 36 54 85 97 95 77 64
4 4 3 3 4 4 3 6 9 10 11 11 28 44 28 34 39 19 13 12 13 12 11 9 6 5 5 5 6 7 7 12 14 22 45 46 46 44 44 42 33 24 24 41 54 67 96 92 69
2 2 2 2 3 5 6 12 60 22 23 28 47 21 19 16 41 27 13 18 25 27 11 6 9 8 5 6 11 17 14 15 18 29 52 54 60 54 47 46 42 30 30 36 35 34 42 54 63
2 2 2 3 7 18 25 100 100 100 100 100 99 100 100 100 96 77 82 92 98 82 35 19 18 17 22 19 29 36 31 28 43 55 58 68 70 63 54 50 41 34 30 28 32 26 24 27 28
4 5 8 10 14 18 49 100 100 100 100 100 100 100 98 74 79 100 100 94 100 74 48 37 39 30 44 44 59 57 65 68 75 83 71 67 68 66 62 60 52 42 37 33 31 28 24 33 27
3 10 35 55 29 16 90 100 100 100 100 100 100 100 92 100 100 100 100 100 86 93 88 72 45 44 59 62 55 86 90 94 98 100 97 87 78 78 93 70 58 50 44 40 37 34 30 29 26
11 17 54 70 63 64 96 100 100 100 100 100 100 99 100 100 100 100 100 98 82 92 99 100 73 54 67 55 84 83 88 99 100 100 100 100 99 100 100 98 80 65 56 50 47 43 39 36 34
20 70 75 86 63 100 100 100 95 99 100 100 100 100 95 100 100 100 100 100 71 81 100 100 100 58 66 75 94 61 96 86 99 99 100 100 99 94 86 97 98 83 70 65 58 52 47 44 40
21 33 79 65 89 100 100 100 100 100 100 100 100 98 99 99 100 100 100 100 92 75 99 98 96 94 82 97 98 92 91 88 100 100 100 100 100 100 100 97 99 96 89 78 70 63 58 51 46
96 79 99 95 100 99 100 100 98 100 100 100 100 100 99 100 100 100 100 100 100 90 94 100 100 100 100 100 97 100 62 97 100 99 100 100 100 100 99 98 99 100 100 98 93 78 68 58 50
Wind_Speed
9 10 10 12 13 13 17 16 15 15 17 13 16 19 18 20 23 27 28 27 24 23 22 25 29 30 29 27 25 22 20 18 18 19 18 18 23 23 22 21 20 18 18 17 14 13 13 12 13
7 7 8 8 9 11 14 13 16 16 16 18 19 19 19 20 24 23 20 24 21 24 28 27 28 29 31 31 29 27 23 22 19 20 20 19 23 24 23 22 21 20 21 18 16 15 14 14 14
9 8 8 8 8 10 11 13 14 16 16 18 22 23 23 23 26 20 19 26 20 20 25 29 30 29 30 31 31 31 28 25 23 21 22 21 23 25 26 24 23 21 21 18 17 16 15 14 14
6 6 7 6 7 8 9 10 13 12 14 14 19 21 24 25 28 25 25 26 23 19 21 25 29 32 32 32 32 31 32 29 27 26 23 24 24 27 28 28 26 25 23 20 18 17 15 15 15
7 8 7 9 10 15 15 13 14 13 11 13 14 16 18 23 26 29 29 30 28 23 22 23 25 27 31 34 34 33 33 32 31 29 27 26 26 28 29 29 27 26 25 22 20 17 16 16 16
12 12 12 14 15 16 15 19 18 18 17 15 15 14 13 16 20 24 30 31 33 28 27 27 25 25 27 29 34 34 34 34 34 34 32 30 28 28 30 30 29 28 29 26 24 20 18 17 17
18 17 18 19 20 19 23 21 20 22 23 23 22 22 24 23 19 16 20 26 31 32 31 31 30 28 27 28 30 32 34 36 36 35 35 33 30 30 30 32 31 30 30 31 28 25 22 19 18
24 23 19 21 25 23 28 24 24 27 26 29 27 26 27 23 21 23 21 22 22 28 30 27 31 33 33 30 31 32 31 34 36 36 37 37 34 33 31 31 34 33 32 32 33 30 27 24 21
30 29 25 25 30 30 33 29 26 29 29 31 31 30 29 30 25 25 26 26 25 22 18 20 26 30 34 36 35 33 33 34 35 35 37 38 39 37 35 33 33 34 35 35 34 36 32 29 26
35 33 30 33 36 36 35 37 34 35 34 32 34 33 33 34 31 29 29 30 30 31 30 27 21 22 30 34 36 37 36 35 35 36 37 38 40 42 39 36 35 35 36 37 36 36 36 34 31
39 36 37 36 40 43 40 39 43 41 40 33 36 38 40 40 39 37 35 34 34 34 34 32 30 26 24 28 33 36 38 39 39 38 39 40 39 41 43 41 38 37 37 37 38 37 38 38 35
43 38 41 42 44 46 45 47 45 49 46 39 41 44 46 45 43 43 42 39 37 38 38 36 35 34 30 29 26 33 36 39 41 40 40 41 42 41 42 43 45 42 40 39 38 39 39 39 39
42 43 44 45 46 48 50 50 52 54 46 47 50 50 49 51 49 47 46 44 44 42 42 39 39 39 39 36 33 30 33 37 42 43 43 43 43 43 42 43 46 47 45 42 40 39 39 39 40
46 46 48 49 47 51 53 52 57 52 49 54 54 56 54 53 54 54 53 52 49 48 45 45 46 43 43 43 41 38 35 37 41 44 46 47 46 45 43 44 46 48 48 47 44 41 39 40 41
50 52 53 50 53 56 57 54 55 56 57 58 59 59 60 60 60 58 57 57 56 55 54 51 50 51 49 46 48 45 42 40 41 43 47 49 51 51 47 45 46 47 49 50 49 45 42 41 40
53 57 57 55 55 56 62 57 59 63 65 65 66 65 63 64 65 66 65 62 62 60 60 58 56 55 54 52 52 52 49 46 44 46 47 50 53 52 52 50 48 49 50 50 50 49 48 45 43
57 60 60 60 59 61 65 64 65 69 69 70 71 71 71 69 70 70 70 69 66 66 66 66 64 60 61 60 59 57 55 53 49 48 50 52 54 55 52 53 51 52 51 50 50 50 51 51 48
61 64 62 63 64 64 69 70 71 74 75 76 76 77 76 77 80 78 77 75 70 68 68 69 69 67 65 65 66 64 61 59 55 51 52 55 56 57 55 55 54 53 54 53 50 49 51 53 51
65 67 69 69 74 77 77 78 74 77 80 81 83 85 84 84 83 81 82 80 75 71 71 74 74 73 72 72 71 69 66 62 59 57 54 56 59 58 56 55 54 55 55 53 52 49 50 51 50
74 77 79 76 81 84 82 80 79 79 77 78 79 84 88 90 90 89 88 83 81 78 74 75 77 78 77 75 74 73 69 66 63 61 59 60 61 59 57 55 54 55 55 54 53 52 52 52 51
76 80 83 86 86 79 80 85 80 75 75 68 70 73 74 78 82 83 85 81 78 77 76 73 72 76 77 75 73 73 71 67 66 65 63 64 64 63 61 58 57 56 56 56 52 52 50 51 50
84 83 87 87 79 80 75 82 71 71 70 69 71 73 74 73 75 74 72 71 67 66 63 61 64 65 64 63 63 65 65 65 64 65 62 64 65 64 62 60 59 57 57 55 54 52 52 52 52
90 90 92 85 79 71 66 60 52 52 49 47 48 49 50 51 52 52 53 53 56 55 55 54 55 55 57 58 60 61 61 63 66 68 65 66 65 65 62 60 60 59 58 57 57 55 54 54 54
94 91 83 73 66 61 52 35 32 27 29 38 39 39 37 41 37 33 34 38 39 49 51 51 54 56 60 62 64 64 66 66 67 67 66 64 64 63 63 61 60 60 59 59 57 56 56 55 54
71 63 61 54 44 36 30 31 35 36 28 24 36 34 47 40 39 35 40 33 41 37 39 44 47 51 56 59 60 63 62 63 65 64 65 64 62 61 61 61 60 60 60 59 58 57 57 56 54
72 59 45 43 34 23 12 16 26 26 29 23 27 34 37 45 40 39 32 38 32 35 30 38 45 42 44 49 54 52 57 59 62 61 60 61 61 60 61 60 59 59 60 59 58 58 58 57 55
55 45 28 22 12 10 4 15 14 21 21 20 24 26 25 18 18 27 34 27 29 32 36 40 35 33 38 47 54 50 56 57 60 60 60 61 57 59 61 59 56 57 57 58 58 59 58 57 56
38 30 20 13 13 5 10 19 22 29 24 21 23 25 24 27 21 17 30 20 28 36 39 31 45 33 43 55 55 51 54 57 60 62 59 59 57 59 59 61 57 53 56 57 57 58 59 58 58
23 20 14 11 10 14 11 17 20 21 32 23 22 21 22 22 21 20 22 31 30 36 35 39 39 37 38 40 60 52 54 61 61 56 57 52 51 52 54 56 59 59 53 53 56 57 57 58 58
23 25 17 12 10 16 18 19 23 21 20 20 22 21 21 20 18 21 20 30 33 40 40 45 30 37 37 57 65 47 42 63 60 59 54 50 50 51 52 51 50 52 57 59 54 53 54 56 56
Wind_Direction
281 274 269 270 268 266 268 271 269 270 270 262 259 262 269 266 263 263 270 274 268 260 256 250 250 249 248 249 247 243 239 240 241 241 245 232 219 218 207 203 200 200 200 197 204 209 213 218 218
341 326 312 304 296 284 280 274 268 260 256 263 259 255 260 266 261 266 276 264 258 252 251 251 251 249 249 248 247 246 238 237 240 241 244 236 222 215 211 208 205 206 201 206 211 212 215 223 220
16 8 357 346 327 312 302 289 277 276 269 252 257 260 258 259 257 263 267 260 260 254 251 249 249 249 248 248 247 245 241 234 234 238 239 239 228 219 212 209 207 207 208 216 213 213 215 220 221
358 360 347 333 329 331 324 316 312 304 295 278 273 264 262 257 259 259 258 257 258 254 249 252 249 249 250 250 248 246 242 237 232 231 234 235 231 221 214 211 210 207 211 215 214 213 212 215 216
305 311 297 287 286 302 310 299 306 303 302 295 281 278 266 266 262 259 258 257 257 255 250 252 250 248 247 247 249 249 247 239 235 233 232 233 231 226 217 217 215 212 213 213 214 211 212 214 214
279 284 274 272 273 275 278 293 292 286 286 280 279 281 286 289 285 268 263 261 259 257 255 248 249 251 250 246 245 246 247 245 238 234 231 232 232 230 225 221 221 219 216 216 216 214 211 216 215
286 283 274 271 266 268 271 277 270 275 277 276 273 273 279 285 290 277 275 267 260 256 253 250 249 249 250 251 250 247 246 246 243 237 233 232 232 231 230 226 227 225 223 220 222 219 219 215 216
284 283 280 280 273 271 271 274 266 266 267 271 274 271 276 275 266 268 270 276 272 268 257 252 247 250 250 250 251 251 249 247 246 243 238 233 232 232 232 229 228 229 227 226 225 224 222 222 218
288 286 285 279 274 273 276 275 266 262 263 263 266 266 262 268 261 257 265 267 271 268 268 268 254 249 252 252 251 251 250 249 247 244 241 238 234 233 231 231 231 231 230 229 228 228 227 225 224
291 286 285 277 279 279 274 274 268 267 264 266 266 261 259 258 257 254 262 266 265 268 267 262 262 262 253 252 252 253 251 250 249 246 243 240 237 234 233 232 231 232 231 230 229 229 228 229 227
290 291 285 281 278 278 276 275 275 272 269 265 257 261 260 259 259 255 254 254 257 257 260 264 261 261 264 259 255 252 252 251 249 249 246 244 240 236 235 235 233 232 232 230 230 229 229 229 230
296 293 285 282 278 279 282 275 270 273 271 261 260 259 259 262 260 258 256 252 249 252 256 256 262 262 262 265 267 258 252 252 251 250 248 245 244 240 236 235 235 234 233 233 231 230 229 230 231
300 294 290 285 282 281 277 278 277 272 271 268 261 257 258 260 259 256 253 253 251 247 251 254 258 261 262 260 264 265 262 256 253 250 249 245 245 244 238 236 235 235 234 234 233 232 230 230 231
299 296 292 288 285 278 274 274 274 279 273 266 266 266 262 257 257 256 255 254 252 246 245 250 253 254 259 262 260 262 262 258 254 252 250 248 244 244 242 237 236 235 235 234 234 233 231 231 231
296 294 291 290 285 283 279 279 277 273 270 267 266 265 262 259 256 254 255 255 254 252 247 245 249 252 253 254 259 259 260 259 256 252 250 248 246 244 242 240 237 235 235 235 234 234 234 232 231
294 292 290 287 283 282 278 283 277 273 271 269 267 266 263 258 253 251 253 255 253 252 251 249 249 251 252 252 253 256 257 256 254 252 248 248 247 244 243 240 238 236 235 235 234 234 234 234 232
295 293 291 290 288 284 281 283 278 274 271 268 267 266 263 259 255 256 255 252 252 250 249 249 248 246 249 251 251 251 252 254 252 249 248 247 247 245 243 241 237 236 236 234 234 232 233 234 234
296 293 293 292 289 284 280 282 281 278 274 270 267 263 259 261 261 259 256 256 254 250 248 247 248 247 246 248 249 249 249 250 250 247 243 244 246 245 242 240 238 236 234 234 233 234 234 234 234
295 295 296 296 293 291 288 286 282 275 272 271 269 266 264 263 257 255 260 259 255 249 245 245 245 245 246 247 247 248 248 246 245 245 239 240 243 243 240 238 238 236 235 234 233 231 233 232 233
302 302 298 297 293 290 288 284 279 273 270 271 267 263 262 261 262 261 260 257 257 254 248 246 245 246 246 246 246 245 246 245 242 240 238 236 239 240 239 237 236 235 234 234 233 231 233 234 233
301 298 296 294 293 289 284 281 277 273 268 265 264 263 262 261 260 260 260 263 265 261 257 252 248 246 244 244 244 244 243 241 240 238 236 236 235 236 236 234 233 233 234 234 234 233 230 234 234
302 300 298 296 293 290 289 285 279 275 271 265 262 262 264 263 264 265 265 264 263 261 259 257 255 250 245 243 239 240 240 237 237 236 235 235 235 234 234 232 233 233 234 235 234 234 232 231 234
304 304 301 300 295 293 288 282 285 278 272 269 266 263 259 258 256 257 252 251 252 252 250 249 242 239 238 235 229 228 230 232 230 231 231 230 234 233 232 231 231 233 234 234 234 234 234 233 235
307 304 302 298 295 290 289 278 275 276 260 254 252 252 252 257 248 246 246 246 250 249 243 236 232 229 227 223 224 223 225 225 228 228 229 228 230 232 231 229 229 231 232 235 236 236 237 236 236
305 302 297 297 293 297 271 259 253 260 252 253 267 262 245 248 247 252 248 253 254 248 247 241 238 232 231 232 229 225 226 225 227 225 227 226 229 230 231 229 228 229 231 233 236 236 238 239 238
312 309 312 305 317 312 216 238 228 230 252 250 256 266 257 243 244 253 249 244 248 234 238 238 233 234 232 228 230 227 223 225 224 223 225 225 225 226 228 229 229 228 229 231 233 236 237 239 240
312 310 316 323 343 337 297 215 254 237 227 249 267 254 241 232 228 230 222 213 229 234 242 209 234 224 224 221 221 226 227 224 224 220 220 220 221 225 228 226 229 229 230 232 232 234 237 239 240
309 314 313 311 316 332 293 285 257 252 246 245 249 249 263 261 248 225 210 224 222 226 233 238 212 209 221 222 222 217 225 225 223 222 221 219 219 223 226 228 224 228 230 231 232 234 236 237 240
321 318 314 324 310 269 290 275 274 258 247 238 243 251 253 245 232 231 224 227 224 229 230 236 228 216 218 218 219 207 221 222 222 223 220 219 222 225 228 230 230 226 227 233 234 235 237 239 240
336 336 348 347 314 286 286 282 277 271 245 231 225 228 245 239 247 244 238 225 231 235 231 240 224 220 200 205 229 210 213 219 217 222 219 217 221 225 229 231 232 230 231 230 232 236 239 241 242